Theta_e
316 313 314 313 310 310 310 310 309 309 310 309 308 309 304 303 300 298 298 297 296 295 294 294 294 293 291 291 291 291 292 292 290 290 289 291 292 291 291 291 292 293 294 295
311 314 312 310 309 310 311 311 309 309 309 309 308 307 307 301 299 298 297 297 295 294 294 294 293 292 291 290 291 291 292 291 291 289 289 288 287 288 287 288 291 292 292 293
313 314 309 309 310 311 310 309 308 309 307 306 305 305 303 300 299 298 298 297 294 294 294 293 292 291 290 290 290 291 291 291 290 289 288 288 287 287 286 287 289 290 291 292
309 309 309 310 310 310 308 307 307 306 306 305 305 305 301 298 298 297 297 295 294 294 293 293 292 291 290 289 290 290 290 289 289 288 287 286 284 283 282 282 284 287 290 291
313 308 307 308 308 309 308 305 305 305 304 304 304 303 303 299 298 297 294 294 294 293 293 292 291 291 290 289 289 289 289 288 287 286 286 285 283 282 281 281 281 283 287 290
309 307 306 306 308 307 305 306 305 304 302 303 304 304 302 298 299 297 293 293 293 293 292 292 291 290 289 289 289 289 288 287 286 285 285 283 282 281 279 279 279 280 282 287
309 307 306 307 307 306 306 304 306 305 304 307 301 301 304 300 298 297 292 293 293 292 292 291 290 289 289 289 288 288 287 287 286 284 282 282 281 280 278 278 278 279 280 283
310 312 307 304 306 306 305 303 305 306 306 307 301 303 302 296 295 294 293 293 292 292 292 291 290 289 288 288 288 288 287 286 285 283 281 282 281 279 278 278 278 277 278 280
310 309 301 299 301 303 304 303 302 303 289 295 299 299 297 295 294 293 292 292 292 292 291 291 290 289 288 288 287 287 286 286 285 282 281 282 280 279 277 276 277 277 278 279
307 308 302 298 299 299 300 300 301 301 306 298 300 301 303 295 294 292 291 292 292 292 291 291 289 288 288 288 287 286 285 285 283 281 280 281 280 278 276 275 275 276 277 278
303 304 304 299 298 300 295 298 298 299 302 304 300 304 297 296 295 292 291 292 292 291 291 290 289 288 288 288 286 286 285 283 282 280 279 280 279 277 275 274 274 275 275 277
301 301 301 301 298 297 297 298 299 302 303 298 300 302 297 296 295 292 292 292 291 291 291 289 288 288 288 286 286 285 284 283 282 279 278 279 278 276 274 274 273 273 273 275
299 300 301 308 295 294 295 294 296 297 298 300 300 301 295 294 292 293 291 291 291 291 290 289 288 288 287 286 285 284 284 283 281 278 278 280 278 275 273 273 272 272 273 273
300 301 308 313 312 299 299 294 295 297 300 301 301 301 297 294 293 291 291 291 291 290 289 289 288 287 286 285 284 283 284 282 280 279 279 280 276 274 272 272 271 271 272 273
298 300 300 303 303 302 303 302 297 296 298 300 302 301 300 300 298 295 291 291 291 290 289 289 288 287 285 284 283 283 283 280 278 278 280 278 275 273 271 271 270 271 271 272
297 301 301 303 301 301 301 300 298 298 298 298 298 298 299 298 294 291 291 291 290 289 289 288 287 286 284 283 282 282 281 280 278 278 279 278 275 272 270 270 269 270 270 271
298 299 300 306 301 298 301 299 298 299 298 298 297 298 299 296 292 290 290 290 290 289 288 287 286 284 283 282 280 280 279 278 277 278 279 277 274 271 270 271 270 271 271 271
299 300 299 300 299 303 304 294 296 298 298 297 297 297 296 292 292 291 290 290 289 288 288 286 285 284 283 281 280 279 278 276 276 278 278 276 273 269 271 271 270 272 272 272
302 301 299 301 300 301 302 300 292 293 299 294 295 296 294 291 290 288 289 289 289 289 286 285 284 283 282 280 279 278 277 275 276 277 277 276 274 269 270 269 270 271 271 273
298 300 302 297 298 299 297 290 291 291 295 292 293 292 290 290 288 288 288 289 289 287 286 285 284 282 281 279 277 277 276 275 275 277 278 277 274 269 269 268 269 271 272 273
297 297 298 300 299 297 295 290 291 294 299 291 292 290 290 290 290 290 290 289 288 286 285 284 283 281 278 277 276 276 274 274 275 277 277 277 272 269 269 269 269 270 273 275
298 297 297 297 297 298 293 290 294 294 292 292 291 291 291 291 290 290 289 288 286 285 284 282 281 279 277 276 275 274 274 274 275 277 278 278 271 271 271 268 270 270 274 276
301 299 296 297 298 294 292 292 293 293 292 291 292 291 291 290 290 290 289 287 285 284 283 281 279 277 275 274 273 273 273 274 275 277 278 276 272 272 270 269 269 269 272 274
295 297 297 296 298 294 291 293 293 292 293 292 292 291 291 290 290 289 287 285 284 283 281 280 278 277 275 273 272 272 273 273 275 277 276 275 272 273 270 270 268 267 269 271
298 296 297 297 296 295 293 292 293 292 292 291 291 291 290 289 288 288 286 284 283 282 281 280 278 276 274 273 273 273 273 273 274 276 275 273 272 270 270 269 267 266 268 270
295 297 298 299 297 298 296 295 293 292 291 291 291 290 289 289 288 287 285 284 283 282 281 279 277 276 274 273 273 273 272 272 273 274 274 273 272 270 270 270 269 270 265 267
Wind_Speed
5 3 4 4 0 1 4 5 6 7 6 8 8 7 11 20 21 21 20 16 11 7 4 7 10 18 31 34 33 35 38 41 45 48 48 46 45 51 57 50 42 41 42 40
6 5 5 6 5 5 6 7 8 8 3 1 6 10 6 20 19 25 22 15 12 7 4 5 11 21 30 34 33 37 39 43 47 50 44 44 49 53 51 50 41 42 43 42
4 4 4 3 2 4 5 6 5 7 5 6 7 8 6 6 13 22 18 15 10 5 2 5 13 24 28 32 33 38 40 44 47 47 51 54 54 54 52 42 35 35 38 36
5 3 3 2 5 6 6 2 2 5 4 4 2 8 4 9 10 12 21 17 11 6 1 5 14 23 26 30 35 39 43 45 47 49 53 53 55 56 52 49 50 51 39 39
9 4 5 4 5 4 5 2 5 5 9 2 6 5 5 13 12 12 14 14 10 5 1 7 17 23 28 31 36 42 43 45 48 51 54 54 55 52 52 50 49 45 44 35
7 1 5 6 2 3 2 3 5 4 2 4 9 11 4 7 15 14 14 15 11 4 2 10 20 22 28 32 41 44 43 49 51 54 56 51 50 51 49 50 44 43 38 42
5 5 2 3 2 2 2 3 4 5 2 7 2 2 14 6 8 18 15 18 11 4 4 13 20 26 36 37 41 44 46 51 53 55 56 51 52 46 46 45 40 39 42 42
3 6 5 4 4 6 6 6 4 7 4 6 6 7 5 2 17 25 20 17 11 3 4 14 26 35 33 34 44 45 48 52 54 56 57 57 54 45 51 40 45 46 42 40
2 5 2 4 1 3 3 4 1 2 2 2 4 5 3 3 8 13 18 15 9 4 9 21 27 30 31 34 46 45 47 51 54 57 59 61 56 54 47 42 47 38 35 40
4 7 0 2 2 2 2 3 2 1 4 7 6 7 8 12 14 8 9 11 5 4 12 16 22 28 30 37 44 44 46 51 54 56 59 60 62 55 46 51 39 40 42 34
5 5 2 4 7 9 2 3 4 2 4 5 2 7 4 18 16 12 10 12 7 5 7 17 25 29 31 39 43 45 48 51 54 56 58 59 60 54 49 47 45 44 34 34
7 5 5 11 4 2 3 9 10 5 6 4 7 18 7 13 13 17 16 14 8 5 10 19 25 29 34 43 44 46 48 52 54 55 57 57 58 55 48 46 47 43 37 33
8 4 2 7 4 4 6 5 6 3 1 19 9 10 1 8 10 18 19 14 10 4 10 16 25 33 40 42 44 47 50 53 56 57 57 59 58 52 49 46 45 43 38 39
13 5 9 18 20 3 8 8 10 14 10 23 26 35 12 7 12 12 15 13 8 3 14 19 28 36 40 42 45 48 51 54 56 58 59 59 57 53 50 46 46 42 38 35
7 9 7 18 15 6 21 15 16 19 27 18 38 25 26 19 17 15 15 8 2 10 17 18 29 37 40 43 46 48 51 53 55 57 59 59 57 53 50 48 43 43 39 35
4 6 3 16 9 16 27 19 21 28 31 30 33 37 30 26 9 15 11 5 4 11 14 21 30 35 40 42 45 49 51 53 54 57 59 59 58 53 52 50 43 43 41 37
10 6 4 15 1 5 15 23 29 22 25 24 24 35 23 15 8 13 11 1 7 10 13 23 28 33 37 39 42 47 49 51 53 55 58 60 59 55 53 49 44 40 39 35
11 8 5 3 5 8 8 2 8 21 26 20 23 23 12 8 12 13 8 2 1 6 17 22 28 32 35 38 41 45 47 49 52 54 58 59 59 53 51 46 41 38 37 37
12 9 4 4 7 11 22 8 8 9 22 22 25 21 7 15 14 4 6 2 2 11 16 21 27 30 34 37 41 45 48 50 51 55 57 58 55 51 50 46 45 44 43 41
5 8 8 5 5 9 1 3 11 7 16 14 17 8 10 15 3 4 10 3 6 10 15 21 24 27 31 34 38 42 46 49 52 54 57 56 52 49 49 45 45 42 40 39
6 6 16 12 8 10 10 7 12 5 7 5 15 18 18 5 4 8 9 8 8 10 15 19 21 25 28 32 37 40 44 47 50 52 53 53 50 50 46 44 43 39 36 36
13 11 6 7 6 15 18 11 10 5 8 14 16 20 22 13 10 10 10 9 8 10 13 17 21 23 26 30 34 39 42 46 48 51 51 53 51 51 47 45 41 38 31 34
6 11 9 13 11 3 37 7 25 13 18 15 21 22 21 16 17 16 14 11 9 10 12 15 19 22 25 28 31 37 41 44 47 49 50 52 52 51 47 44 41 40 33 32
7 12 5 7 18 17 26 18 24 21 17 23 23 24 19 17 18 18 15 12 10 8 11 15 18 21 24 27 30 34 39 41 44 47 49 50 51 52 49 45 39 37 34 34
9 19 17 11 7 7 19 28 26 27 21 26 23 22 18 18 20 17 16 13 9 7 9 13 17 20 24 27 30 33 36 39 42 44 46 47 49 49 50 46 38 32 27 28
10 11 12 11 10 18 13 39 34 34 31 29 27 22 21 22 19 17 16 13 9 8 9 12 15 19 22 26 29 31 33 36 38 41 43 45 47 48 48 49 47 35 28 26
Wind_Direction
297 65 261 210 138 256 262 260 251 262 247 202 227 238 190 181 169 164 163 155 146 109 58 357 332 340 348 355 354 351 348 349 349 343 342 336 325 313 307 311 308 301 300 296
12 250 195 173 207 226 232 261 271 286 167 313 259 249 238 184 182 171 165 163 151 124 48 355 331 342 349 352 351 350 348 349 347 345 334 323 319 319 313 307 294 294 296 297
174 224 174 182 206 232 246 228 253 256 332 297 281 274 189 191 171 176 170 167 138 120 26 337 336 344 345 349 347 348 348 346 343 339 336 334 327 324 318 311 307 297 288 290
236 210 167 197 244 176 261 163 225 282 354 242 118 288 213 179 182 183 180 165 148 131 59 326 337 342 343 344 346 348 346 339 338 339 339 337 332 326 322 314 300 286 291 287
248 196 212 229 229 151 241 52 249 249 246 359 233 251 255 167 204 195 175 159 145 145 302 330 340 342 340 344 347 348 338 335 338 338 340 336 333 324 321 316 311 304 281 285
243 33 175 206 139 186 14 309 262 215 169 256 232 203 228 182 216 175 169 156 152 161 298 330 342 338 342 345 348 339 336 334 337 337 338 333 329 327 318 317 313 309 300 283
336 218 100 135 133 20 79 50 320 339 331 238 182 284 246 212 188 171 159 156 158 169 315 334 339 342 349 346 340 336 335 334 335 333 334 332 327 324 316 313 308 308 303 287
228 300 177 173 193 186 192 165 169 263 240 276 324 254 240 147 127 137 143 150 156 186 303 333 348 352 343 340 335 335 335 331 333 332 332 332 330 319 319 312 307 302 301 297
249 256 95 41 10 143 178 182 162 287 105 5 240 278 340 131 139 142 147 155 165 193 329 349 347 342 341 333 334 333 330 331 332 330 331 332 330 320 320 307 317 307 300 295
199 290 93 164 68 317 218 171 85 72 287 273 266 260 232 190 197 181 168 162 177 314 334 336 335 340 339 330 330 330 331 331 331 331 330 330 329 324 313 313 315 298 297 298
149 172 201 128 199 187 143 227 229 188 174 235 281 255 234 192 189 183 181 170 195 254 305 334 340 343 333 326 331 331 332 331 332 330 329 328 329 324 317 311 314 309 296 285
204 169 231 224 208 228 179 202 189 209 222 240 256 272 174 185 182 166 168 180 200 248 324 339 341 339 330 330 332 331 332 331 331 330 327 328 328 327 319 313 313 312 304 296
181 211 340 298 6 342 226 205 212 266 277 240 247 262 157 143 151 169 172 188 193 252 330 336 343 339 329 330 331 332 332 331 331 329 330 331 331 327 318 314 312 308 303 298
164 203 202 254 269 128 238 188 204 217 245 253 241 259 234 200 177 177 181 188 193 307 342 342 341 331 329 330 331 331 331 331 330 331 331 334 332 325 319 313 312 309 308 302
166 240 195 256 273 282 266 253 227 221 236 234 258 248 259 251 246 233 183 166 350 342 341 340 334 328 328 331 331 330 331 330 332 332 333 335 332 327 319 316 309 304 300 295
178 251 159 273 237 245 260 250 246 241 245 244 252 267 261 274 189 161 166 157 344 339 341 335 329 327 329 332 330 329 331 332 334 334 335 337 334 325 321 321 314 308 303 298
168 186 159 261 107 323 274 238 229 241 240 230 243 247 275 257 189 171 158 161 342 336 328 331 327 327 328 330 329 328 331 333 336 336 337 339 332 328 325 324 321 317 311 308
176 186 173 267 90 255 258 166 215 231 247 235 252 257 243 152 165 158 158 199 247 325 330 323 325 327 329 330 329 330 334 336 338 338 339 338 335 328 331 328 326 323 319 312
212 178 196 213 208 314 296 246 174 182 275 210 232 245 231 147 136 141 175 168 323 324 320 324 326 327 331 332 333 334 337 338 340 341 339 341 337 336 336 332 331 326 319 313
162 219 204 154 212 225 174 146 122 107 278 201 212 203 144 144 161 204 178 213 289 306 315 324 328 331 332 335 336 338 339 340 343 341 340 342 341 343 338 331 324 325 320 310
168 192 213 222 235 272 227 170 146 145 260 150 170 156 156 171 176 150 191 223 270 300 317 323 330 335 338 339 339 341 341 343 341 342 341 344 348 347 340 336 335 333 330 327
176 169 193 202 211 258 154 147 192 178 150 161 168 169 169 162 173 198 205 238 261 295 314 326 333 339 343 343 343 344 345 343 343 344 344 350 352 349 347 343 344 341 343 345
197 188 176 195 210 189 173 191 199 178 175 179 174 174 171 182 197 205 220 230 258 289 314 329 335 342 348 349 350 347 346 345 345 346 350 355 354 353 353 348 349 347 351 344
236 197 219 154 228 216 197 206 197 194 194 191 187 181 190 201 203 209 214 222 248 282 315 333 338 345 349 351 355 352 349 347 349 349 356 359 357 357 356 355 356 349 350 347
195 166 201 242 239 171 209 208 207 200 195 189 189 194 208 205 202 209 211 220 241 280 314 331 341 347 350 354 356 355 351 350 352 354 359 2 2 2 359 359 357 351 348 347
186 189 190 210 173 201 194 211 210 202 196 199 199 198 207 207 207 208 209 224 242 278 313 334 342 346 352 357 355 354 354 355 355 358 2 7 7 7 6 4 360 8 354 352